User: anonymous   Login
Location: Unspecified
(0.0000°N, 0.0000°E)
Time: 14:50:16
(UTC+00:00)
Language:

APRIZESAT 6 - Orbit

View from above orbital plane
View from above orbital plane
View from above satellite
View from above satellite

Ground track
Ground track

The orbit data is extracted from the following two-line orbital elements,

1 37793U 11044F   17206.27544735 +.00000023 +00000-0 +12317-4 0  9995
2 37793 098.2937 335.4702 0046108 315.0935 103.8217 14.72219539318724
Epoch (UTC): 25 July 2017 06:36:38
Eccentricity: 0.0046108
inclination: 98.2937°
perigee height: 621 km
apogee height: 686 km
right ascension of ascending node: 335.4702°
argument of perigee: 315.0935°
revolutions per day: 14.72219539
mean anomaly at epoch: 103.8217°
orbit number at epoch: 31872

The dashed part of the orbit path shows where the satellite is in the earth's shadow,  

DLR